CW5102 Weather Reports


Display with metric or nautical units.
time (UTC)temp
F
wind
direction
speed
MPH
gust
MPH
rain 1hr
in
rain 24hr
in
rain mn
in
humidity
%
barometer
mb
20260904003203 81 210 0.0 0.0 0.00 0.38 0.38 71 1007.6
20260904002703 81 210 0.0 0.0 0.00 0.38 0.38 71 1007.7
20260904002202 82 192 0.0 0.0 0.00 0.38 0.38 70 1007.7
20260904001703 82 234 0.0 0.0 0.00 0.38 0.38 70 1007.8
20260904001202 82 217 0.0 0.0 0.00 0.38 0.38 69 1007.7
20260904000703 82 207 0.0 0.0 0.00 0.38 0.38 69 1007.8
20260904000204 82 206 0.0 0.0 0.00 0.38 0.38 68 1007.8
20260903235704 82 216 0.0 0.0 0.00 0.38 0.38 68 1007.8
20260903235203 82 194 0.0 0.0 0.00 0.38 0.38 68 1007.8
20260903234703 83 213 0.0 0.0 0.00 0.38 0.38 67 1007.8
20260903234203 82 218 0.0 0.0 0.00 0.38 0.38 67 1007.8
20260903233703 83 217 0.0 0.0 0.00 0.38 0.38 67 1007.9
20260903233203 83 202 0.0 0.0 0.00 0.38 0.38 67 1007.9
20260903232702 83 226 0.0 0.0 0.00 0.38 0.38 67 1007.7
20260903232202 83 201 0.0 0.0 0.00 0.38 0.38 67 1007.6
20260903231203 83 238 0.0 0.0 0.00 0.38 0.38 66 1007.4
20260903230703 83 203 0.0 0.0 0.00 0.38 0.38 66 1007.3
20260903230203 83 225 0.0 0.0 0.00 0.38 0.38 65 1007.1
20260903225703 83 242 0.0 0.0 0.00 0.38 0.38 65 1007.1
20260903225202 83 242 0.0 0.0 0.00 0.38 0.38 65 1007.0
20260903224703 83 187 0.0 0.0 0.00 0.38 0.38 65 1007.1
20260903223702 83 159 0.0 0.0 0.00 0.38 0.38 64 1007.0
20260903223203 83 192 0.0 0.0 0.00 0.38 0.38 64 1007.1
20260903222703 83 202 0.0 0.0 0.00 0.38 0.38 65 1007.1
20260903221702 83 141 0.0 0.0 0.00 0.38 0.38 66 1007.4
20260903221202 83 186 0.0 0.0 0.00 0.38 0.38 67 1007.4
20260903220703 83 203 0.0 0.0 0.00 0.38 0.38 68 1007.4
20260903220203 83 233 0.0 0.0 0.00 0.38 0.38 67 1007.3
20260903215703 83 200 0.0 0.0 0.00 0.38 0.38 67 1007.4
20260903215203 83 246 0.0 0.0 0.00 0.38 0.38 68 1007.5
20260903214202 83 225 0.0 0.0 0.00 0.38 0.38 67 1007.5
20260903213703 83 211 0.0 0.0 0.00 0.38 0.38 67 1007.3
20260903212703 83 225 0.0 0.0 0.00 0.38 0.38 70 1007.4
20260903212203 83 249 0.0 0.0 0.00 0.38 0.38 69 1007.5
20260903211203 83 235 0.0 0.0 0.00 0.38 0.38 70 1007.8
20260903210703 83 188 0.0 0.0 0.00 0.38 0.38 70 1007.8
20260903210203 83 218 0.0 0.0 0.00 0.38 0.38 73 1007.9
20260903205703 83 184 0.0 0.0 0.00 0.38 0.38 76 1007.8
20260903205203 82 216 0.0 0.0 0.00 0.38 0.38 79 1007.9
20260903204203 81 193 0.0 0.0 0.00 0.38 0.38 81 1007.7
20260903203702 81 218 0.0 0.0 0.00 0.38 0.38 81 1008.0
20260903203203 81 213 0.0 0.0 0.00 0.38 0.38 82 1008.0
20260903202703 81 210 0.0 0.0 0.00 0.38 0.38 81 1007.9
20260903202203 81 306 0.0 0.0 0.00 0.38 0.38 83 1008.0
20260903201203 82 242 0.0 0.0 0.00 0.38 0.38 87 1008.2
20260903200703 82 237 0.0 0.0 0.00 0.38 0.38 89 1008.3
20260903200203 81 259 0.0 0.0 0.00 0.38 0.38 91 1008.2
20260903195703 81 204 0.0 0.0 0.01 0.38 0.38 90 1008.2
20260903195203 81 213 0.0 0.0 0.13 0.38 0.38 90 1008.3
20260903194703 81 223 0.0 0.0 0.26 0.38 0.38 95 1008.1
20260903194203 81 232 0.0 0.0 0.32 0.38 0.38 97 1008.2
20260903193703 81 212 0.0 0.0 0.37 0.38 0.38 98 1008.4
20260903193203 80 187 0.0 0.0 0.38 0.38 0.38 98 1008.6
20260903192703 79 155 0.0 0.0 0.38 0.38 0.38 97 1008.6
20260903192203 78 155 0.0 0.0 0.38 0.38 0.38 95 1008.5
20260903191203 77 190 0.0 0.0 0.38 0.38 0.38 89 1008.3
20260903190203 77 190 0.0 0.0 0.38 0.38 0.38 85 1008.3
20260903185703 77 207 0.0 0.0 0.37 0.37 0.37 82 1008.3
20260903185203 78 0 0.0 0.0 0.25 0.25 0.25 81 1008.3
20260903184703 78 215 0.0 0.0 0.12 0.12 0.12 78 1008.5
20260903183703 80 173 0.0 0.0 0.01 0.01 0.01 70 1008.6
20260903182703 81 202 0.0 0.0 0.00 0.00 0.00 67 1009.1
20260903182203 82 236 0.0 0.0 0.00 0.00 0.00 65 1009.2
20260903181703 82 228 0.0 0.0 0.00 0.00 0.00 64 1009.2
20260903181203 82 201 0.0 0.0 0.00 0.00 0.00 64 1009.3
20260903180203 82 210 0.0 0.0 0.00 0.00 0.00 65 1009.2
20260903175203 83 206 0.0 0.0 0.00 0.00 0.00 62 1009.2
20260903174703 83 235 0.0 0.0 0.00 0.00 0.00 62 1009.1
20260903174203 83 227 0.0 0.0 0.00 0.00 0.00 63 1009.1
20260903173703 83 212 0.0 0.0 0.00 0.00 0.00 63 1009.0
20260903173203 83 185 0.0 0.0 0.00 0.00 0.00 64 1009.1
20260903172203 83 192 0.0 0.0 0.00 0.00 0.00 62 1009.4
20260903171703 83 220 0.0 0.0 0.00 0.00 0.00 62 1009.5
20260903171203 83 231 0.0 0.0 0.00 0.00 0.00 62 1009.4
20260903170703 83 162 0.0 0.0 0.00 0.00 0.00 62 1009.5
20260903170203 83 246 0.0 0.0 0.00 0.00 0.00 63 1009.5
20260903165703 83 153 0.0 0.0 0.00 0.00 0.00 63 1009.6
20260903164703 82 213 0.0 0.0 0.00 0.00 0.00 65 1009.6
20260903164203 82 246 0.0 0.0 0.00 0.00 0.00 64 1009.6
20260903163703 82 215 0.0 0.0 0.00 0.00 0.00 66 1009.6
20260903163203 82 198 0.0 0.0 0.00 0.00 0.00 67 1009.7
20260903162703 81 236 0.0 0.0 0.00 0.00 0.00 67 1009.6
20260903162203 81 255 0.0 0.0 0.00 0.00 0.00 71 1009.6
20260903161203 80 262 0.0 0.0 0.00 0.00 0.00 74 1009.5
20260903155703 79 229 0.0 0.0 0.00 0.00 0.00 76 1009.4
20260903155203 79 103 0.0 0.0 0.00 0.00 0.00 77 1009.5
20260903154203 79 109 0.0 0.0 0.00 0.00 0.00 80 1009.6
20260903153703 78 0 0.0 0.0 0.00 0.00 0.00 80 1009.6
20260903153203 78 254 0.0 0.0 0.00 0.00 0.00 81 1009.6
20260903152703 78 227 0.0 0.0 0.00 0.00 0.00 84 1009.7
20260903152203 78 223 0.0 0.0 0.00 0.00 0.00 85 1009.7
20260903151703 77 216 0.0 0.0 0.00 0.00 0.00 87 1009.7
20260903151203 77 242 0.0 0.0 0.00 0.00 0.00 88 1009.6
20260903150703 77 251 0.0 0.0 0.00 0.00 0.00 90 1009.5
20260903150203 77 198 0.0 0.0 0.00 0.00 0.00 91 1009.5
20260903145703 76 231 0.0 0.0 0.00 0.00 0.00 91 1009.4
20260903144703 76 272 0.0 0.0 0.00 0.00 0.00 95 1009.4
20260903144203 76 234 0.0 0.0 0.00 0.00 0.00 96 1009.4
20260903143203 75 231 0.0 0.0 0.00 0.00 0.00 99 1009.4
20260903142703 75 214 0.0 0.0 0.00 0.00 0.00 99 1009.4
20260903142203 75 214 0.0 0.0 0.00 0.00 0.00 100 1009.5
20260903141703 75 214 0.0 0.0 0.00 0.00 0.00 100 1009.6
20260903140204 74 216 0.0 0.0 0.00 0.00 0.00 100 1009.6
20260903135704 74 168 0.0 0.0 0.00 0.00 0.00 100 1009.7
20260903135203 73 173 0.0 0.0 0.00 0.00 0.00 100 1009.7
20260903134704 73 231 0.0 0.0 0.00 0.00 0.00 100 1009.7
20260903133203 73 234 0.0 0.0 0.00 0.00 0.00 100 1009.9
20260903132704 73 234 0.0 0.0 0.00 0.00 0.00 100 1010.0
20260903131704 73 234 0.0 0.0 0.00 0.00 0.00 100 1009.9
20260903131204 73 234 0.0 0.0 0.00 0.00 0.00 100 1009.8
20260903130703 72 234 0.0 0.0 0.00 0.00 0.00 100 1009.6
20260903130203 72 234 0.0 0.0 0.00 0.00 0.00 100 1009.6
20260903125703 72 234 0.0 0.0 0.00 0.00 0.00 100 1009.7
20260903125204 72 234 0.0 0.0 0.00 0.00 0.00 100 1009.7
20260903124703 72 234 0.0 0.0 0.00 0.00 0.00 100 1009.5
20260903124203 72 234 0.0 0.0 0.00 0.00 0.00 100 1009.2
20260903123203 72 234 0.0 0.0 0.00 0.00 0.00 100 1008.9
20260903122704 72 234 0.0 0.0 0.00 0.00 0.00 100 1008.9
20260903122203 72 234 0.0 0.0 0.00 0.00 0.00 100 1008.9
20260903121703 72 234 0.0 0.0 0.00 0.00 0.00 100 1009.0
20260903121203 73 193 0.0 0.0 0.00 0.00 0.00 100 1009.0
20260903120204 73 193 0.0 0.0 0.00 0.00 0.00 100 1008.9
20260903115704 73 194 0.0 0.0 0.00 0.00 0.00 100 1009.1
20260903115204 73 193 0.0 0.0 0.00 0.00 0.00 100 1009.2
20260903114204 73 262 0.0 0.0 0.00 0.00 0.00 100 1009.6
20260903113704 73 207 0.0 0.0 0.00 0.00 0.00 100 1009.7
20260903113204 73 231 0.0 0.0 0.00 0.00 0.00 100 1009.7
20260903112703 73 225 0.0 0.0 0.00 0.00 0.00 100 1009.6
20260903112203 73 225 0.0 0.0 0.00 0.00 0.00 100 1009.6
20260903111704 72 246 0.0 0.0 0.00 0.00 0.00 100 1009.6
20260903111203 72 276 0.0 0.0 0.00 0.00 0.00 100 1009.5
20260903110703 72 215 0.0 0.0 0.00 0.00 0.00 100 1009.4
20260903110203 72 215 0.0 0.0 0.00 0.00 0.00 100 1009.5
20260903105704 72 215 0.0 0.0 0.00 0.00 0.00 100 1009.5
20260903105204 72 215 0.0 0.0 0.00 0.00 0.00 100 1009.6
20260903104703 72 215 0.0 0.0 0.00 0.00 0.00 100 1009.6
20260903104204 72 214 0.0 0.0 0.00 0.00 0.00 100 1009.9
20260903103703 72 157 0.0 0.0 0.00 0.00 0.00 100 1009.7
20260903103203 72 156 0.0 0.0 0.00 0.00 0.00 100 1009.7
20260903102704 72 156 0.0 0.0 0.00 0.00 0.00 100 1009.6
20260903102203 72 155 0.0 0.0 0.00 0.00 0.00 100 1009.5
20260903101704 72 154 0.0 0.0 0.00 0.00 0.00 100 1009.6
20260903101203 72 154 0.0 0.0 0.00 0.00 0.00 100 1009.6
20260903100704 72 154 0.0 0.0 0.00 0.00 0.00 100 1009.5
20260903100204 72 154 0.0 0.0 0.00 0.00 0.00 100 1009.5
20260903095703 72 154 0.0 0.0 0.00 0.00 0.00 100 1009.5
20260903095203 72 154 0.0 0.0 0.00 0.00 0.00 100 1009.5
20260903094204 72 147 0.0 0.0 0.00 0.00 0.00 100 1009.4
20260903093703 72 147 0.0 0.0 0.00 0.00 0.00 100 1009.3
20260903093203 72 147 0.0 0.0 0.00 0.00 0.00 100 1009.4
20260903092704 72 147 0.0 0.0 0.00 0.00 0.00 100 1009.4
20260903092203 72 147 0.0 0.0 0.00 0.00 0.00 99 1009.3
20260903091704 72 147 0.0 0.0 0.00 0.00 0.00 99 1009.4
20260903091204 72 147 0.0 0.0 0.00 0.00 0.00 99 1009.5
20260903090704 72 147 0.0 0.0 0.00 0.00 0.00 98 1009.4
20260903090203 72 147 0.0 0.0 0.00 0.00 0.00 97 1009.3
20260903085703 72 147 0.0 0.0 0.00 0.00 0.00 97 1009.3
20260903085204 72 147 0.0 0.0 0.00 0.00 0.00 97 1009.3
20260903084703 72 134 0.0 0.0 0.00 0.00 0.00 97 1009.2
20260903084203 72 134 0.0 0.0 0.00 0.00 0.00 96 1009.2
20260903083203 72 134 0.0 0.0 0.00 0.00 0.00 96 1009.3
20260903082703 72 134 0.0 0.0 0.00 0.00 0.00 95 1009.3
20260903081703 72 134 0.0 0.0 0.00 0.00 0.00 94 1009.6
20260903080704 73 134 0.0 0.0 0.00 0.00 0.00 94 1009.5
20260903080203 73 134 0.0 0.0 0.00 0.00 0.00 93 1009.6
20260903075204 73 134 0.0 0.0 0.00 0.00 0.00 92 1009.5
20260903074703 73 134 0.0 0.0 0.00 0.00 0.00 92 1009.6
20260903074203 73 134 0.0 0.0 0.00 0.00 0.00 91 1009.7
20260903073202 73 134 0.0 0.0 0.00 0.00 0.00 91 1009.7
20260903072203 73 134 0.0 0.0 0.00 0.00 0.00 90 1009.8
20260903071702 73 134 0.0 0.0 0.00 0.00 0.00 89 1009.8
20260903070703 73 134 0.0 0.0 0.00 0.01 0.00 88 1009.8
20260903070203 73 134 0.0 0.0 0.00 0.01 0.00 88 1009.9
20260903065703 73 134 0.0 0.0 0.00 0.01 0.00 88 1009.9
20260903065202 74 134 0.0 0.0 0.00 0.01 0.00 87 1009.9
20260903064702 74 134 0.0 0.0 0.00 0.01 0.00 86 1009.9
20260903063702 74 134 0.0 0.0 0.00 0.01 0.00 86 1010.0
20260903063202 74 134 0.0 0.0 0.00 0.02 0.00 86 1010.0
20260903061702 74 150 0.0 0.0 0.00 0.02 0.00 85 1009.9
20260903061203 74 154 0.0 0.0 0.00 0.02 0.00 84 1010.0
20260903060703 74 155 0.0 0.0 0.00 0.02 0.00 83 1010.0
20260903060203 74 155 0.0 0.0 0.00 0.02 0.00 83 1010.0
20260903055702 74 147 0.0 0.0 0.00 0.02 0.00 83 1010.0
20260903055202 74 147 0.0 0.0 0.00 0.02 0.00 82 1010.1
20260903054702 74 147 0.0 0.0 0.00 0.02 0.00 82 1010.1
20260903053702 75 135 0.0 0.0 0.00 0.02 0.00 81 1010.1
20260903053202 75 135 0.0 0.0 0.00 0.02 0.00 81 1010.1
20260903051702 75 125 0.0 0.0 0.00 0.02 0.00 79 1010.0
20260903050703 75 139 0.0 0.0 0.00 0.02 0.00 79 1010.1
20260903050202 75 139 0.0 0.0 0.00 0.02 0.00 78 1010.2
20260903045702 75 139 0.0 0.0 0.00 0.02 0.02 78 1010.2
20260903044703 74 136 0.0 0.0 0.00 0.02 0.02 77 1010.2
20260903044203 74 136 0.0 0.0 0.00 0.02 0.02 76 1010.3
20260903043703 74 136 0.0 0.0 0.00 0.02 0.02 76 1010.3
20260903043202 74 126 0.0 0.0 0.00 0.02 0.02 75 1010.3
20260903042203 74 223 0.0 0.0 0.00 0.02 0.02 74 1010.5
20260903041702 74 223 0.0 0.0 0.00 0.02 0.02 73 1010.6
20260903041203 74 223 0.0 0.0 0.00 0.02 0.02 73 1010.6
20260903040202 75 223 0.0 0.0 0.00 0.02 0.02 72 1010.5
20260903035703 75 223 0.0 0.0 0.00 0.02 0.02 72 1010.5
20260903034703 75 223 0.0 0.0 0.00 0.02 0.02 71 1010.5
20260903034202 75 223 0.0 0.0 0.00 0.02 0.02 70 1010.6
20260903033702 75 223 0.0 0.0 0.00 0.02 0.02 70 1010.6
20260903033203 75 223 0.0 0.0 0.00 0.02 0.02 70 1010.6
20260903032702 75 223 0.0 0.0 0.00 0.02 0.02 70 1010.6
20260903031702 75 223 0.0 0.0 0.00 0.02 0.02 69 1010.6
20260903031203 75 223 0.0 0.0 0.00 0.02 0.02 69 1010.6
20260903030703 75 223 0.0 0.0 0.00 0.02 0.02 69 1010.6
20260903030203 76 223 0.0 0.0 0.00 0.02 0.02 68 1010.6
20260903025703 76 223 0.0 0.0 0.00 0.02 0.02 68 1010.6
20260903025203 76 223 0.0 0.0 0.00 0.02 0.02 68 1010.6
20260903024703 76 223 0.0 0.0 0.00 0.02 0.02 68 1010.6
20260903024203 76 223 0.0 0.0 0.00 0.02 0.02 67 1010.5
20260903023702 76 223 0.0 0.0 0.00 0.02 0.02 67 1010.5
20260903023203 76 223 0.0 0.0 0.00 0.02 0.02 67 1010.5
20260903022703 76 223 0.0 0.0 0.00 0.02 0.02 67 1010.5
20260903022202 76 223 0.0 0.0 0.00 0.02 0.02 67 1010.5
20260903021703 77 223 0.0 0.0 0.00 0.02 0.02 67 1010.4
20260903021203 77 223 0.0 0.0 0.00 0.02 0.02 67 1010.4
20260903020702 77 223 0.0 0.0 0.00 0.02 0.02 66 1010.4
20260903015703 77 223 0.0 0.0 0.00 0.02 0.02 66 1010.4
20260903015203 78 223 0.0 0.0 0.00 0.02 0.02 66 1010.5
20260903014703 78 223 0.0 0.0 0.00 0.02 0.02 66 1010.4
20260903014202 78 223 0.0 0.0 0.00 0.02 0.02 66 1010.3
20260903012703 79 224 0.0 0.0 0.00 0.02 0.02 65 1010.2
20260903011703 79 223 0.0 0.0 0.00 0.02 0.02 64 1010.1
20260903011202 79 223 0.0 0.0 0.00 0.02 0.02 64 1010.0
20260903010702 80 223 0.0 0.0 0.00 0.02 0.02 63 1010.0
20260903010202 80 223 0.0 0.0 0.00 0.02 0.02 63 1009.8
20260903005703 80 223 0.0 0.0 0.00 0.02 0.02 62 1009.8
20260903005203 80 224 0.0 0.0 0.00 0.02 0.02 62 1009.8
20260903004702 81 224 0.0 0.0 0.00 0.02 0.02 62 1009.8
20260903004203 81 224 0.0 0.0 0.00 0.02 0.02 61 1009.8
20260903003703 81 224 0.0 0.0 0.00 0.02 0.02 60 1009.9